Weather History for KCSM - January, 2013

Change the Weather History Date:

Wednesday, January 2, 2013

  Actual Average Record
Temperature  
Mean Temperature 31 °F -  
Max Temperature 44 °F 47 °F 77 °F (1997)
Min Temperature 18 °F 28 °F 16 °F (2011)
Degree Days  
Heating Degree Days 34    
Moisture  
Dew Point 21 °F    
Average Humidity 76    
Maximum Humidity 89    
Minimum Humidity 43    
Precipitation  
Precipitation 0.00 in - - ()
Sea Level Pressure  
Sea Level Pressure 30.32 in    
Wind  
Wind Speed 6 mph (WNW)    
Max Wind Speed 14 mph    
Max Gust Speed -    
Visibility 9 miles    
Events      
Averages and records for this station are not official NWS values.
T = Trace of Precipitation, MM = Missing Value Source: NWS Daily Summary

Daily Weather History Graph

Daily Weather History Graph

Search for Another Location

Airport or City:

Trip Planner

Search our weather history database for the weather conditions in past years. The results will help you decide how hot, cold, wet, or windy it might be!

Date:

Astronomy

Jan. 02, 2013 Rise Set
Actual Time 7:45 AM CST 5:36 PM CST
Civil Twilight 7:17 AM CST 6:04 PM CST
Nautical Twilight 6:46 AM CST 6:36 PM CST
Astronomical Twilight 6:15 AM CST 7:07 PM CST
Moon 10:57 PM CST (1/2) 10:40 AM CST (1/2)
Length of Visible Light 10h 46m
Length of Day
9h 50m
Waning Gibbous, 75% of the Moon is Illuminated
Jan 2
Waning Gibbous
Jan 4
Last Quarter
Jan 11
New
Jan 18
First Quarter
Jan 26
Full

Hourly Weather History & Observations

Time (CST) Temp. Windchill Dew Point Humidity Pressure Visibility Wind Dir Wind Speed Gust Speed Precip Events Conditions
12:53 AM 21.0 °F 16.2 °F 17.1 °F 85% 30.33 in 7.0 mi NW 3.5 mph - N/A   Clear
1:53 AM 19.0 °F 13.9 °F 16.0 °F 88% 30.32 in 6.0 mi SSW 3.5 mph - N/A   Clear
2:53 AM 21.0 °F 16.2 °F 17.1 °F 85% 30.33 in 7.0 mi WNW 3.5 mph - N/A   Clear
3:53 AM 19.0 °F 12.3 °F 16.0 °F 88% 30.32 in 8.0 mi NW 4.6 mph - N/A   Clear
4:53 AM 19.9 °F 14.9 °F 17.1 °F 89% 30.31 in 8.0 mi West 3.5 mph - N/A   Clear
6:53 AM 18.0 °F 12.7 °F 15.1 °F 88% 30.31 in 6.0 mi SW 3.5 mph - N/A   Clear
7:53 AM 19.0 °F 9.0 °F 16.0 °F 88% 30.32 in 5.0 mi SW 8.1 mph - N/A   Clear
8:53 AM 21.9 °F 11.7 °F 18.0 °F 85% 30.33 in 6.0 mi SW 9.2 mph - N/A   Clear
9:53 AM 26.1 °F 17.6 °F 21.0 °F 81% 30.34 in 8.0 mi SW 8.1 mph - N/A   Clear
10:53 AM 28.9 °F 19.8 °F 24.1 °F 82% 30.35 in 9.0 mi WSW 10.4 mph - N/A   Clear
11:53 AM 34.0 °F 26.6 °F 24.1 °F 67% 30.32 in 10.0 mi WSW 9.2 mph - N/A   Clear
12:53 PM 37.9 °F 31.5 °F 25.0 °F 60% 30.27 in 10.0 mi West 9.2 mph - N/A   Clear
1:53 PM 42.1 °F 36.6 °F 23.0 °F 47% 30.25 in 10.0 mi NW 9.2 mph - N/A   Clear
2:53 PM 44.1 °F 39.5 °F 23.0 °F 43% 30.24 in 10.0 mi NNW 8.1 mph - N/A   Clear
3:53 PM 44.1 °F 37.4 °F 25.0 °F 47% 30.25 in 10.0 mi NW 13.8 mph - N/A   Clear
5:53 PM 35.1 °F 28.6 °F 25.0 °F 67% 30.30 in 10.0 mi NNW 8.1 mph - N/A   Clear
6:53 PM 30.9 °F 22.8 °F 24.1 °F 76% 30.34 in 10.0 mi NW 9.2 mph - N/A   Clear
7:53 PM 30.9 °F 23.5 °F 24.1 °F 76% 30.36 in 10.0 mi NNW 8.1 mph - N/A   Clear
8:53 PM 28.9 °F 20.4 °F 24.1 °F 82% 30.37 in 10.0 mi NNW 9.2 mph - N/A   Clear
10:53 PM 28.0 °F 19.3 °F 23.0 °F 81% 30.37 in 10.0 mi NW 9.2 mph - N/A   Clear
11:53 PM 28.0 °F 18.6 °F 23.0 °F 81% 30.39 in 10.0 mi WNW 10.4 mph - N/A   Clear